SCP
0 0 -0 0 0 0 0 0 -0 -0 0 0 0 0 0 0 0 0 0 0 0 0 -0 0 0 0 0 0 0 0 0 -0 -0 -0 0 0 0 0 0 0 0 -0 0
0 0 -0 0 0 0 0 -0 0 0 0 0 0 0 0 0 0 0 0 0 0 -0 -0 0 0 0 0 -0 -0 -0 -0 -0 -0 -0 0 -0 0 0 0 0 -0 -0 -0
0 0 0 0 0 0 0 0 0 0 0 0 0 0 0 0 0 0 0 -0 0 -0 -0 0 0 0 -0 -0 -0 -0 -0 -0 0 0 -0 -0 0 0 -0 -0 0 -0 -0
0 0 0 -0 0 0 -0 0 0 0 0 0 0 0 0 0 0 0 -0 -0 -0 0 0 0 0 -0 -0 -0 -0 -0 -0 -0 0 0 0 0 0 0 -0 -0 0 0 0
0 0 -0 -0 0 0 0 0 0 0 -0 0 0 0 0 0 0 0 -0 -0 0 0 0 0 0 -0 -0 -0 -0 -0 -0 -0 0 0 0 0 -0 0 -0 -0 0 0 0
0 -0 -0 0 0 0 0 -0 0 -0 -0 0 0 -0 -0 -0 0 0 0 0 0 0 0 0 -0 -0 -0 -0 -0 -0 -0 0 -0 0 -0 0 -0 0 -0 0 0 0 -0
0 0 -0 0 0 -0 0 -0 -0 -0 -0 -0 -0 -0 -0 -0 0 0 0 0 0 -0 -0 -0 -0 -0 -0 -0 -0 -0 -0 0 0 0 0 0 -0 0 -0 0 -0 -0 -0
0 0 0 0 -0 -0 0 0 -0 -0 -0 -0 -0 0 -0 -0 -0 -0 0 -0 -0 -0 -0 -0 -0 -0 -0 -0 -0 -0 0 0 0 0 -0 -0 -0 0 -0 -0 0 -0 -0
0 0 0 0 0 -0 0 0 0 -0 -0 -0 -0 0 -0 0 -0 -0 -0 -0 -0 -0 -0 -0 -0 -0 -0 -0 -0 -0 0 0 0 0 -0 -0 0 -0 -0 0 0 -0 -0
0 0 0 0 0 0 0 0 0 0 -0 -0 0 -0 0 0 -0 -0 -0 -0 -0 -0 -0 -0 -0 -0 -0 -0 -0 -0 -0 0 -0 0 -0 -0 -0 -0 -0 -0 -0 0 0
0 0 0 0 0 0 0 0 0 0 0 -0 0 0 0 0 -0 -0 -0 -0 -0 -0 -0 -0 -0 -0 -0 -0 -0 -0 -0 -0 0 0 0 0 0 0 0 0 0 -0 -0
0 -0 0 0 0 0 0 -0 0 -0 0 0 -0 0 0 -0 -0 -0 -0 -0 -0 -0 -0 -0 -0 0 -0 -0 -0 -0 0 -0 -0 0 -0 0 0 0 0 0 0 0 -0
0 0 0 0 0 0 0 0 0 0 -0 -0 0 0 -0 -0 -0 -0 -0 -0 -0 -0 -0 -0 -0 -0 -0 -0 0 0 -0 0 0 0 0 0 0 0 0 0 0 0 0
0 0 0 0 0 0 0 0 0 0 -0 0 0 -0 -0 -0 -0 -0 -0 0 -0 -0 0 0 -0 -0 -0 -0 -0 -0 0 0 -0 0 -0 -0 -0 0 0 0 -0 -0 0
0 0 0 0 0 0 0 0 0 0 -0 0 0 -0 -0 -0 0 -0 -0 -0 0 0 0 0 0 0 0 -0 0 0 -0 -0 -0 -0 -0 -0 -0 0 0 0 0 0 0
-0 -0 -0 0 0 0 0 0 0 0 0 0 0 -0 -0 -0 -0 0 0 0 -0 -0 0 0 0 0 0 0 -0 -0 -0 -0 -0 -0 0 -0 -0 -0 0 -0 -0 0 0
0 0 0 0 0 0 0 -0 -0 -0 0 0 0 0 -0 -0 -0 -0 0 0 -0 -0 0 -0 -0 -0 0 0 0 -0 -0 -0 -0 -0 0 -0 0 -0 -0 0 -0 0 0
0 -0 0 0 0 -0 -0 -0 -0 -0 0 -0 0 -0 -0 -0 0 -0 -0 -0 0 -0 0 0 0 0 -0 0 0 -0 -0 -0 0 -0 -0 -0 -0 -0 -0 -0 -0 0 -0
-0 -0 -0 0 0 -0 -0 -0 0 0 -0 0 0 0 -0 -0 -0 -0 -0 -0 -0 -0 -0 0 -0 0 0 0 -0 -0 -0 -0 -0 0 -0 -0 -0 0 -0 -0 0 0 0
-0 -0 0 -0 0 -0 -0 -0 -0 0 -0 0 0 -0 0 0 0 0 0 0 -0 -0 -0 0 -0 -0 0 0 -0 0 -0 -0 -0 -0 -0 -0 -0 -0 -0 -0 -0 -0 -0
0 0 -0 -0 -0 -0 -0 0 -0 -0 0 -0 -0 0 0 -0 -0 0 0 0 -0 -0 0 -0 -0 0 0 0 0 -0 -0 -0 -0 -0 -0 -0 -0 -0 -0 -0 -0 -0 -0
0 0 0 0 0 0 -0 -0 -0 -0 -0 -0 0 0 0 0 -0 0 0 0 0 -0 -0 -0 -0 0 0 0 0 0 -0 0 -0 -0 -0 -0 -0 -0 -0 -0 -0 -0 -0
-0 -0 -0 -0 0 0 0 -0 -0 -0 0 0 0 0 0 0 0 0 0 0 0 -0 -0 -0 0 -0 0 0 0 0 0 0 0 -0 -0 -0 -0 0 -0 -0 -0 -0 -0
-0 -0 -0 -0 -0 0 0 -0 -0 -0 -0 -0 0 0 0 0 0 0 0 0 0 0 0 0 0 0 0 0 0 0 0 0 0 0 0 0 -0 -0 -0 -0 -0 -0 -0
-0 -0 -0 -0 -0 0 0 0 -0 -0 -0 -0 0 0 0 0 0 0 0 0 -0 0 0 0 0 0 0 0 0 0 0 0 0 0 0 0 0 0 -0 -0 -0 -0 -0
-0 -0 -0 -0 -0 -0 0 0 0 0 0 -0 0 0 0 0 0 0 0 0 0 0 0 0 0 0 0 0 0 0 0 0 0 0 -0 0 0 0 0 -0 0 -0 -0
Wind_Speed_500mb
38 38 41 39 37 34 33 32 30 26 22 18 15 14 16 17 18 16 17 18 20 19 19 20 24 26 30 32 34 34 37 38 38 37 38 38 36 39 39 42 37 35 38
46 40 43 38 34 33 31 30 28 22 17 14 12 11 11 12 14 16 17 16 20 20 19 20 28 31 32 34 34 34 35 37 34 35 35 32 31 35 37 39 35 34 34
46 41 41 37 34 31 29 29 26 21 18 14 11 12 11 11 13 15 16 16 19 23 27 31 37 34 30 32 33 33 33 33 35 40 43 26 26 31 31 31 29 31 30
45 41 34 37 32 32 30 28 25 20 16 13 11 11 11 11 13 15 21 22 25 28 29 33 36 34 33 32 32 32 31 30 35 40 27 24 24 26 28 30 30 30 29
44 40 37 37 35 33 30 26 23 18 15 13 12 13 13 10 9 24 27 27 27 29 31 33 34 32 33 30 30 29 28 28 33 31 28 28 24 23 25 25 26 29 31
45 40 42 37 35 31 29 25 23 18 16 16 16 18 18 22 29 33 33 29 29 28 29 29 29 30 28 25 27 26 28 29 33 24 25 28 21 26 26 28 24 23 25
45 39 42 37 34 29 29 26 18 18 18 19 19 20 22 28 33 34 32 29 27 26 26 25 26 26 23 22 23 25 24 31 22 23 24 25 20 22 23 22 23 23 23
44 41 40 39 31 28 28 24 19 18 17 17 20 21 23 26 30 28 27 25 25 24 25 24 25 22 17 19 22 23 22 29 24 22 20 23 22 21 21 22 24 22 22
40 40 39 33 32 28 25 21 18 17 16 17 19 20 21 22 22 24 23 22 21 22 22 22 21 20 16 22 22 22 22 29 21 20 15 19 20 19 19 20 21 22 21
43 40 39 34 30 23 21 19 16 16 16 14 17 16 18 19 17 17 16 17 17 18 21 20 16 14 16 19 17 18 21 27 17 17 16 16 19 17 17 18 18 19 21
41 39 34 34 33 27 20 16 14 11 13 12 10 15 19 14 14 16 17 14 12 16 17 15 13 9 12 15 20 16 23 13 16 14 11 15 18 16 14 15 14 17 18
47 45 37 33 29 27 21 14 11 9 5 9 10 12 13 13 16 19 16 13 10 8 11 8 8 10 15 6 10 15 11 13 17 15 8 16 16 13 11 10 12 12 15
44 40 40 35 30 26 21 17 11 9 9 7 10 11 12 12 10 16 18 16 12 9 7 7 6 7 7 12 15 12 11 13 12 14 9 16 14 13 9 10 9 10 11
44 41 39 34 33 29 22 16 13 12 11 10 11 13 13 8 14 14 16 18 14 12 13 13 9 4 2 18 13 16 13 13 11 14 12 16 12 9 9 5 6 7 11
49 41 38 33 34 25 25 16 15 15 12 11 12 12 13 16 20 16 20 16 14 13 12 10 10 7 12 15 16 16 13 10 10 12 15 15 10 12 8 6 3 6 9
54 36 33 31 29 30 21 21 17 13 14 13 14 14 14 17 22 18 21 20 16 15 14 12 12 11 10 13 13 12 12 6 10 12 6 21 20 12 12 14 16 11 12
45 42 34 32 29 31 28 21 18 16 14 12 13 16 15 13 10 14 18 21 19 18 14 16 16 12 11 10 14 11 10 8 9 12 13 9 18 21 12 8 14 13 13
48 47 36 26 31 26 25 21 17 16 18 13 12 12 10 11 11 12 11 19 17 17 15 16 21 12 10 13 13 13 12 12 11 11 10 12 12 11 11 10 12 14 14
44 44 37 32 26 29 28 24 22 22 19 13 16 15 15 13 11 12 11 16 17 19 18 23 25 16 15 12 17 15 14 12 10 11 11 12 13 14 10 6 12 13 16
50 59 44 31 33 30 27 31 26 27 23 21 18 16 18 17 17 15 14 12 13 15 21 22 27 22 18 17 18 17 15 14 12 14 13 13 16 14 12 11 5 8 14
53 52 49 37 31 33 32 32 31 28 27 25 22 21 19 16 15 15 16 12 14 14 20 22 27 26 20 22 22 19 15 13 13 15 15 14 17 16 16 14 14 10 10
57 52 44 41 38 40 33 31 29 27 27 23 21 24 25 23 19 16 20 18 12 17 19 24 28 29 25 23 20 16 16 16 18 16 16 16 18 18 17 18 16 18 13
64 60 53 49 47 45 39 33 32 31 30 24 24 24 28 29 29 22 22 23 17 13 19 24 26 30 26 23 21 16 14 16 17 15 20 18 21 21 19 19 18 19 20
70 62 56 52 53 52 48 38 37 30 28 23 22 20 22 27 30 29 27 26 26 24 18 22 24 28 29 24 22 22 17 8 10 7 15 17 21 21 22 18 18 22 23
63 60 57 55 54 55 52 51 40 39 30 26 24 24 27 26 28 30 30 28 28 25 24 23 25 30 28 27 24 26 23 16 6 4 5 16 20 20 24 21 20 20 24
61 59 54 52 59 61 60 56 54 46 39 33 29 27 24 24 24 26 32 32 31 31 24 20 27 32 35 28 26 30 20 20 19 12 12 10 15 19 21 19 20 20 20
Wind_Direction_500mb
153 152 150 142 137 137 143 148 148 138 130 123 119 122 126 132 136 133 119 117 98 108 117 120 118 114 107 98 99 103 106 108 111 107 106 107 110 109 107 97 98 107 110
152 152 150 148 146 141 143 149 147 142 131 122 119 122 124 133 140 139 129 107 103 102 105 111 125 120 112 106 106 108 110 109 107 108 107 106 112 116 114 117 129 111 112
151 156 149 149 152 150 151 148 144 139 131 124 116 115 116 127 138 146 134 118 106 101 98 103 121 119 117 112 106 110 110 111 111 99 87 100 109 117 125 126 120 117 117
151 152 150 149 147 147 146 144 136 136 126 114 101 95 107 121 134 139 128 122 113 107 104 105 114 109 111 115 115 108 112 110 107 91 103 111 121 119 118 117 118 117 118
151 152 163 148 145 145 142 137 133 132 119 112 105 101 103 91 145 144 128 121 119 112 108 108 110 106 105 107 108 111 113 110 114 109 126 122 117 122 124 125 123 117 118
153 155 156 150 148 144 137 132 125 119 105 101 108 108 92 71 110 128 126 119 119 114 115 114 111 110 109 107 109 112 110 107 91 108 118 123 132 127 120 121 131 125 122
153 160 154 151 152 143 134 127 125 116 105 101 106 108 101 92 105 116 119 116 117 116 118 119 118 114 109 105 118 113 117 113 112 105 112 115 128 125 127 131 129 126 126
155 156 162 153 155 149 139 133 122 121 112 107 111 114 110 111 107 113 113 112 116 115 119 117 115 116 122 115 113 118 120 112 107 113 116 129 125 126 127 124 121 123 122
158 159 159 161 159 160 146 140 129 124 115 110 109 121 124 117 125 121 118 121 120 120 122 115 115 109 99 133 124 113 116 121 113 122 104 119 121 117 121 122 124 121 115
165 165 164 164 164 159 158 151 141 130 124 114 116 115 129 125 136 132 123 124 127 130 129 125 114 98 91 129 127 119 110 102 124 116 120 133 119 118 121 119 119 121 119
173 166 168 171 173 160 166 173 156 150 139 121 123 127 103 133 115 111 164 149 148 138 138 133 127 112 81 98 153 117 92 138 109 120 121 128 120 114 112 113 116 124 122
177 175 170 178 170 174 170 184 177 182 160 158 171 149 135 154 157 161 156 160 165 158 158 159 119 121 93 133 142 113 114 131 112 116 158 118 102 105 105 102 119 117 127
178 175 179 180 176 181 184 180 192 197 216 224 196 167 178 167 140 157 174 161 143 131 97 113 102 141 150 160 174 154 139 113 126 121 130 116 117 100 101 97 110 127 130
174 180 182 182 181 179 193 193 198 204 223 218 229 224 195 179 168 189 186 177 180 160 183 164 185 145 141 164 163 139 135 122 131 134 138 127 140 147 85 91 115 131 141
175 185 184 187 193 186 195 205 204 213 235 235 233 232 201 204 198 184 179 191 187 204 188 197 171 158 113 135 146 147 130 133 121 144 150 156 140 170 173 188 162 179 162
190 188 187 190 194 200 195 207 214 223 231 234 235 217 221 206 222 211 205 195 195 213 187 208 179 176 146 149 156 154 161 153 137 152 212 177 174 178 205 241 239 208 181
190 185 186 195 201 212 210 214 223 230 229 228 225 234 234 232 216 193 198 210 203 198 199 201 187 177 179 184 166 176 176 169 152 147 150 172 185 198 224 231 203 197 192
182 214 199 199 208 215 215 218 215 223 209 221 221 222 248 241 232 231 209 204 207 203 195 218 187 192 176 177 182 172 175 179 171 166 161 169 191 216 207 204 191 187 187
190 205 194 205 211 212 219 216 217 221 228 211 237 240 253 249 248 245 234 225 214 200 199 209 196 181 195 198 191 192 189 195 192 191 205 178 183 174 171 215 197 195 183
195 193 192 203 206 210 209 219 222 228 231 233 242 248 250 249 247 241 250 240 238 234 213 207 204 215 201 203 192 200 198 200 223 231 207 212 196 186 195 178 179 178 183
196 199 209 205 209 208 208 211 217 225 231 234 238 244 245 253 254 251 245 252 252 245 216 217 217 218 210 204 203 201 214 228 225 212 215 210 215 209 210 204 192 199 227
199 208 212 217 217 212 217 218 220 228 234 236 238 239 245 248 257 251 255 255 284 236 240 219 210 216 195 205 198 201 213 219 217 212 216 211 211 211 217 213 205 203 207
208 212 216 219 217 221 216 223 226 229 232 239 243 245 249 253 254 255 257 264 270 273 249 229 218 214 210 203 207 210 200 214 184 208 220 215 215 209 213 218 213 219 211
215 218 221 221 223 225 225 219 222 226 236 244 244 249 250 262 260 264 261 258 253 258 250 236 223 221 204 216 210 199 202 236 211 168 206 213 220 217 222 221 228 224 218
216 218 220 220 222 220 224 223 228 235 239 249 249 247 267 259 266 257 266 261 253 256 248 247 220 221 217 209 203 206 212 224 239 200 201 216 221 221 223 219 227 227 225
220 219 219 219 221 223 226 231 232 235 242 243 248 247 255 253 251 254 253 263 258 252 254 258 244 231 210 215 215 221 215 222 234 233 235 186 222 217 218 224 211 222 225
Wind_Speed_850mb
38 38 41 39 37 34 33 32 30 26 22 18 15 14 16 17 18 16 17 18 20 19 19 20 24 26 30 32 34 34 37 38 38 37 38 38 36 39 39 42 37 35 38
46 40 43 38 34 33 31 30 28 22 17 14 12 11 11 12 14 16 17 16 20 20 19 20 28 31 32 34 34 34 35 37 34 35 35 32 31 35 37 39 35 34 34
46 41 41 37 34 31 29 29 26 21 18 14 11 12 11 11 13 15 16 16 19 23 27 31 37 34 30 32 33 33 33 33 35 40 43 26 26 31 31 31 29 31 30
45 41 34 37 32 32 30 28 25 20 16 13 11 11 11 11 13 15 21 22 25 28 29 33 36 34 33 32 32 32 31 30 35 40 27 24 24 26 28 30 30 30 29
44 40 37 37 35 33 30 26 23 18 15 13 12 13 13 10 9 24 27 27 27 29 31 33 34 32 33 30 30 29 28 28 33 31 28 28 24 23 25 25 26 29 31
45 40 42 37 35 31 29 25 23 18 16 16 16 18 18 22 29 33 33 29 29 28 29 29 29 30 28 25 27 26 28 29 33 24 25 28 21 26 26 28 24 23 25
45 39 42 37 34 29 29 26 18 18 18 19 19 20 22 28 33 34 32 29 27 26 26 25 26 26 23 22 23 25 24 31 22 23 24 25 20 22 23 22 23 23 23
44 41 40 39 31 28 28 24 19 18 17 17 20 21 23 26 30 28 27 25 25 24 25 24 25 22 17 19 22 23 22 29 24 22 20 23 22 21 21 22 24 22 22
40 40 39 33 32 28 25 21 18 17 16 17 19 20 21 22 22 24 23 22 21 22 22 22 21 20 16 22 22 22 22 29 21 20 15 19 20 19 19 20 21 22 21
43 40 39 34 30 23 21 19 16 16 16 14 17 16 18 19 17 17 16 17 17 18 21 20 16 14 16 19 17 18 21 27 17 17 16 16 19 17 17 18 18 19 21
41 39 34 34 33 27 20 16 14 11 13 12 10 15 19 14 14 16 17 14 12 16 17 15 13 9 12 15 20 16 23 13 16 14 11 15 18 16 14 15 14 17 18
47 45 37 33 29 27 21 14 11 9 5 9 10 12 13 13 16 19 16 13 10 8 11 8 8 10 15 6 10 15 11 13 17 15 8 16 16 13 11 10 12 12 15
44 40 40 35 30 26 21 17 11 9 9 7 10 11 12 12 10 16 18 16 12 9 7 7 6 7 7 12 15 12 11 13 12 14 9 16 14 13 9 10 9 10 11
44 41 39 34 33 29 22 16 13 12 11 10 11 13 13 8 14 14 16 18 14 12 13 13 9 4 2 18 13 16 13 13 11 14 12 16 12 9 9 5 6 7 11
49 41 38 33 34 25 25 16 15 15 12 11 12 12 13 16 20 16 20 16 14 13 12 10 10 7 12 15 16 16 13 10 10 12 15 15 10 12 8 6 3 6 9
54 36 33 31 29 30 21 21 17 13 14 13 14 14 14 17 22 18 21 20 16 15 14 12 12 11 10 13 13 12 12 6 10 12 6 21 20 12 12 14 16 11 12
45 42 34 32 29 31 28 21 18 16 14 12 13 16 15 13 10 14 18 21 19 18 14 16 16 12 11 10 14 11 10 8 9 12 13 9 18 21 12 8 14 13 13
48 47 36 26 31 26 25 21 17 16 18 13 12 12 10 11 11 12 11 19 17 17 15 16 21 12 10 13 13 13 12 12 11 11 10 12 12 11 11 10 12 14 14
44 44 37 32 26 29 28 24 22 22 19 13 16 15 15 13 11 12 11 16 17 19 18 23 25 16 15 12 17 15 14 12 10 11 11 12 13 14 10 6 12 13 16
50 59 44 31 33 30 27 31 26 27 23 21 18 16 18 17 17 15 14 12 13 15 21 22 27 22 18 17 18 17 15 14 12 14 13 13 16 14 12 11 5 8 14
53 52 49 37 31 33 32 32 31 28 27 25 22 21 19 16 15 15 16 12 14 14 20 22 27 26 20 22 22 19 15 13 13 15 15 14 17 16 16 14 14 10 10
57 52 44 41 38 40 33 31 29 27 27 23 21 24 25 23 19 16 20 18 12 17 19 24 28 29 25 23 20 16 16 16 18 16 16 16 18 18 17 18 16 18 13
64 60 53 49 47 45 39 33 32 31 30 24 24 24 28 29 29 22 22 23 17 13 19 24 26 30 26 23 21 16 14 16 17 15 20 18 21 21 19 19 18 19 20
70 62 56 52 53 52 48 38 37 30 28 23 22 20 22 27 30 29 27 26 26 24 18 22 24 28 29 24 22 22 17 8 10 7 15 17 21 21 22 18 18 22 23
63 60 57 55 54 55 52 51 40 39 30 26 24 24 27 26 28 30 30 28 28 25 24 23 25 30 28 27 24 26 23 16 6 4 5 16 20 20 24 21 20 20 24
61 59 54 52 59 61 60 56 54 46 39 33 29 27 24 24 24 26 32 32 31 31 24 20 27 32 35 28 26 30 20 20 19 12 12 10 15 19 21 19 20 20 20
Wind_Direction_850mb
153 152 150 142 137 137 143 148 148 138 130 123 119 122 126 132 136 133 119 117 98 108 117 120 118 114 107 98 99 103 106 108 111 107 106 107 110 109 107 97 98 107 110
152 152 150 148 146 141 143 149 147 142 131 122 119 122 124 133 140 139 129 107 103 102 105 111 125 120 112 106 106 108 110 109 107 108 107 106 112 116 114 117 129 111 112
151 156 149 149 152 150 151 148 144 139 131 124 116 115 116 127 138 146 134 118 106 101 98 103 121 119 117 112 106 110 110 111 111 99 87 100 109 117 125 126 120 117 117
151 152 150 149 147 147 146 144 136 136 126 114 101 95 107 121 134 139 128 122 113 107 104 105 114 109 111 115 115 108 112 110 107 91 103 111 121 119 118 117 118 117 118
151 152 163 148 145 145 142 137 133 132 119 112 105 101 103 91 145 144 128 121 119 112 108 108 110 106 105 107 108 111 113 110 114 109 126 122 117 122 124 125 123 117 118
153 155 156 150 148 144 137 132 125 119 105 101 108 108 92 71 110 128 126 119 119 114 115 114 111 110 109 107 109 112 110 107 91 108 118 123 132 127 120 121 131 125 122
153 160 154 151 152 143 134 127 125 116 105 101 106 108 101 92 105 116 119 116 117 116 118 119 118 114 109 105 118 113 117 113 112 105 112 115 128 125 127 131 129 126 126
155 156 162 153 155 149 139 133 122 121 112 107 111 114 110 111 107 113 113 112 116 115 119 117 115 116 122 115 113 118 120 112 107 113 116 129 125 126 127 124 121 123 122
158 159 159 161 159 160 146 140 129 124 115 110 109 121 124 117 125 121 118 121 120 120 122 115 115 109 99 133 124 113 116 121 113 122 104 119 121 117 121 122 124 121 115
165 165 164 164 164 159 158 151 141 130 124 114 116 115 129 125 136 132 123 124 127 130 129 125 114 98 91 129 127 119 110 102 124 116 120 133 119 118 121 119 119 121 119
173 166 168 171 173 160 166 173 156 150 139 121 123 127 103 133 115 111 164 149 148 138 138 133 127 112 81 98 153 117 92 138 109 120 121 128 120 114 112 113 116 124 122
177 175 170 178 170 174 170 184 177 182 160 158 171 149 135 154 157 161 156 160 165 158 158 159 119 121 93 133 142 113 114 131 112 116 158 118 102 105 105 102 119 117 127
178 175 179 180 176 181 184 180 192 197 216 224 196 167 178 167 140 157 174 161 143 131 97 113 102 141 150 160 174 154 139 113 126 121 130 116 117 100 101 97 110 127 130
174 180 182 182 181 179 193 193 198 204 223 218 229 224 195 179 168 189 186 177 180 160 183 164 185 145 141 164 163 139 135 122 131 134 138 127 140 147 85 91 115 131 141
175 185 184 187 193 186 195 205 204 213 235 235 233 232 201 204 198 184 179 191 187 204 188 197 171 158 113 135 146 147 130 133 121 144 150 156 140 170 173 188 162 179 162
190 188 187 190 194 200 195 207 214 223 231 234 235 217 221 206 222 211 205 195 195 213 187 208 179 176 146 149 156 154 161 153 137 152 212 177 174 178 205 241 239 208 181
190 185 186 195 201 212 210 214 223 230 229 228 225 234 234 232 216 193 198 210 203 198 199 201 187 177 179 184 166 176 176 169 152 147 150 172 185 198 224 231 203 197 192
182 214 199 199 208 215 215 218 215 223 209 221 221 222 248 241 232 231 209 204 207 203 195 218 187 192 176 177 182 172 175 179 171 166 161 169 191 216 207 204 191 187 187
190 205 194 205 211 212 219 216 217 221 228 211 237 240 253 249 248 245 234 225 214 200 199 209 196 181 195 198 191 192 189 195 192 191 205 178 183 174 171 215 197 195 183
195 193 192 203 206 210 209 219 222 228 231 233 242 248 250 249 247 241 250 240 238 234 213 207 204 215 201 203 192 200 198 200 223 231 207 212 196 186 195 178 179 178 183
196 199 209 205 209 208 208 211 217 225 231 234 238 244 245 253 254 251 245 252 252 245 216 217 217 218 210 204 203 201 214 228 225 212 215 210 215 209 210 204 192 199 227
199 208 212 217 217 212 217 218 220 228 234 236 238 239 245 248 257 251 255 255 284 236 240 219 210 216 195 205 198 201 213 219 217 212 216 211 211 211 217 213 205 203 207
208 212 216 219 217 221 216 223 226 229 232 239 243 245 249 253 254 255 257 264 270 273 249 229 218 214 210 203 207 210 200 214 184 208 220 215 215 209 213 218 213 219 211
215 218 221 221 223 225 225 219 222 226 236 244 244 249 250 262 260 264 261 258 253 258 250 236 223 221 204 216 210 199 202 236 211 168 206 213 220 217 222 221 228 224 218
216 218 220 220 222 220 224 223 228 235 239 249 249 247 267 259 266 257 266 261 253 256 248 247 220 221 217 209 203 206 212 224 239 200 201 216 221 221 223 219 227 227 225
220 219 219 219 221 223 226 231 232 235 242 243 248 247 255 253 251 254 253 263 258 252 254 258 244 231 210 215 215 221 215 222 234 233 235 186 222 217 218 224 211 222 225